Miscellaneous Local Product
Issued by NWS Hastings, NE

Home | Current Version | Previous Version | Text Only | Print | Product List | Glossary On
Versions: 1 2 3 4 5 6 7 8 9 10 11 12 13 14 15 16 17 18 19 20 21 22 23 24 25 26 27 28 29 30 31 32 33 34 35 36 37 38 39 40 41 42 43 44 45 46 47 48 49 50
000
AXUS43 KGID 181202
MISGRI

GID CWA HOURLY WEATHER ROUNDUP
NATIONAL WEATHER SERVICE HASTINGS NE
700 AM CDT THU SEP 18 2014

NOTE: "FAIR" INDICATES FEW OR NO CLOUDS BELOW 12,000 FEET WITH NO
SIGNIFICANT WEATHER AND/OR OBSTRUCTIONS TO VISIBILITY.

...SOUTH CENTRAL NEBRASKA...

CITY           SKY/WX    TMP DP  RH WIND       PRES   REMARKS
GRAND ISLAND   FOG       61  60  97 SE8       29.97S VSB 3/4
HASTINGS       FOG       61  59  93 SE9       29.97S VSB 1
KEARNEY        CLOUDY    61  59  94 SE10      29.98R
ORD            FOG       59  58  96 S8        29.96R VSB 1/2
YORK           FOG       61  61 100 SE7       29.98S VSB 1/2
AURORA         FOG       60  60 100 SE5       29.97S VSB 1/4
LEXINGTON      CLOUDY    61  60  97 SE9       29.98R FOG
HOLDREGE       CLOUDY    61  59  94 SE5       29.97R FOG
HEBRON         CLOUDY    63  61  93 E7        29.97R FOG

...NEBRASKA PANHANDLE...

CITY           SKY/WX    TMP DP  RH WIND       PRES   REMARKS
CHADRON        CLEAR     48  47  96 W5        29.91S
ALLIANCE       CLOUDY    62  60  93 S12       29.94S
SCOTTSBLUFF    FOG       54  54 100 SW3       29.95S VSB 1/4
SIDNEY         FOG       57  56  96 CALM      29.99R VSB<1/4

...WESTERN AND NORTH CENTRAL NEBRASKA...

CITY           SKY/WX    TMP DP  RH WIND       PRES   REMARKS
VALENTINE      CLOUDY    61  60  97 S6        29.94S FOG
AINSWORTH      FOG       59  59 100 S12       29.95S VSB 3/4
ONEILL         CLEAR     60  59  98 S8        29.97R
BROKEN BOW     FOG       61  60  97 S7        29.97S VSB 1/4
IMPERIAL       FOG       64  63  96 SE7       29.96R VSB 1/2
NORTH PLATTE   FOG       59  58  96 SE6       29.97R VSB 1/4
MCCOOK         FOG       63  62  97 E7        29.95S VSB 3/4

...EASTERN NEBRASKA...

CITY           SKY/WX    TMP DP  RH WIND       PRES   REMARKS
NORFOLK        PTCLDY    59  58  96 E7        29.98R
SO SIOUX CITY  PTCLDY    56  55  97 E5        30.00R
TEKAMAH        PTCLDY    57  55  93 E5        30.00S
ALBION         CLOUDY    60  58  94 SE5       29.99R FOG
OMAHA EPPLEY   CLOUDY    60  57  89 SE10      30.01R FOG
OFFUTT AFB     CLOUDY    60  60 100 E10       30.00R
MILLARD        MOCLDY    60  59  96 SE5       30.00R FOG
LINCOLN        CLOUDY    63  61  93 SE8       30.00R FOG
NEBRASKA CITY  CLOUDY    62  60  94 SE7       30.00R FOG
BEATRICE       CLOUDY    63  62  96 SE9       29.98R
FALLS CITY     CLOUDY    62  62 100 E5        29.99R FOG

...NORTHERN KANSAS...

CITY           SKY/WX    TMP DP  RH WIND       PRES   REMARKS
GOODLAND       CLOUDY    63  63 100 E5        29.97R FOG
HILL CITY      CLOUDY    64  63  96 E12       29.94R FOG
NORTON         CLOUDY    61  57  88 E9        29.94R FOG
PHILLIPSBURG   CLOUDY    64  64 100 E7        29.95R FOG
SMITH CENTER   PTCLDY    61  61 100 E9        29.95R FOG
BELOIT         CLOUDY    64  64 100 E6        29.93R
HAYS           CLOUDY    66  63  88 E9        29.91S
RUSSELL        MOCLDY    62  60  93 NE8       29.91R
CONCORDIA      CLOUDY    64  64 100 E12       29.95R
SALINA         PTCLDY    66  63  90 E9        29.92R
TOPEKA         CLOUDY    64  63  96 E10       29.97S FOG



USA.gov is the U.S. government's official web portal to all federal, state and local government web resources and services.